| time (UTC) | temp F | wind direction | speed knots | gust knots | rain 1hr in | rain 24hr in | rain mn in | humidity % | barometer mb |
| 20260505003016 | 59 | 127 | 7.0 | 13.0 | 0.00 | 0.00 | 0.00 | 72 | 1026.4 |
| 20260505001516 | 57 | 67 | 7.0 | 11.3 | 0.00 | 0.00 | 0.00 | 75 | 1026.1 |
| 20260505000017 | 56 | 101 | 6.1 | 10.4 | 0.00 | 0.00 | 0.00 | 78 | 1026.0 |
| 20260504231517 | 54 | 65 | 4.3 | 9.6 | 0.00 | 0.00 | 0.00 | 80 | 1025.3 |
| 20260504230016 | 53 | 96 | 6.1 | 8.7 | 0.00 | 0.00 | 0.00 | 81 | 1025.2 |
| 20260504224520 | 53 | 113 | 6.1 | 9.6 | 0.00 | 0.00 | 0.00 | 82 | 1025.1 |
| 20260504220021 | 52 | 113 | 2.6 | 7.0 | 0.00 | 0.00 | 0.00 | 83 | 1024.9 |
| 20260504214524 | 52 | 99 | 3.5 | 7.8 | 0.00 | 0.00 | 0.00 | 83 | 1024.7 |
| 20260504213036 | 52 | 125 | 3.5 | 7.0 | 0.00 | 0.00 | 0.00 | 84 | 1024.7 |
| 20260504211508 | 52 | 129 | 3.5 | 7.0 | 0.00 | 0.00 | 0.00 | 83 | 1024.7 |
| 20260504210017 | 52 | 136 | 4.3 | 6.1 | 0.00 | 0.00 | 0.00 | 84 | 1024.8 |
| 20260504204508 | 52 | 117 | 2.6 | 5.2 | 0.00 | 0.00 | 0.00 | 83 | 1024.9 |
| 20260504200009 | 52 | 134 | 2.6 | 3.5 | 0.00 | 0.00 | 0.00 | 83 | 1024.9 |
| 20260504194518 | 53 | 134 | 1.7 | 3.5 | 0.00 | 0.00 | 0.00 | 82 | 1024.8 |
| 20260504193023 | 53 | 140 | 1.7 | 6.1 | 0.00 | 0.00 | 0.00 | 81 | 1024.8 |
| 20260504191511 | 54 | 146 | 2.6 | 3.5 | 0.00 | 0.00 | 0.00 | 81 | 1024.9 |
| 20260504183016 | 55 | 116 | 3.5 | 7.0 | 0.00 | 0.00 | 0.00 | 78 | 1025.1 |
| 20260504181522 | 55 | 99 | 3.5 | 7.0 | 0.00 | 0.00 | 0.00 | 78 | 1025.1 |
| 20260504180008 | 55 | 130 | 2.6 | 4.3 | 0.00 | 0.00 | 0.00 | 77 | 1025.1 |
| 20260504174519 | 56 | 154 | 3.5 | 5.2 | 0.00 | 0.00 | 0.00 | 76 | 1025.2 |
| 20260504081509 | 66 | 224 | 7.8 | 12.2 | 0.00 | 0.00 | 0.00 | 68 | 1025.0 |
| 20260504044533 | 69 | 92 | 2.6 | 5.2 | 0.00 | 0.00 | 0.00 | 54 | 1026.1 |
| 20260504043028 | 69 | 137 | 3.5 | 7.0 | 0.00 | 0.00 | 0.00 | 55 | 1026.2 |
| 20260504041528 | 68 | 17 | 3.5 | 7.0 | 0.00 | 0.00 | 0.00 | 57 | 1026.5 |
| 20260504040022 | 67 | 101 | 3.5 | 7.8 | 0.00 | 0.00 | 0.00 | 57 | 1026.7 |
| 20260504034528 | 68 | 92 | 4.3 | 7.8 | 0.00 | 0.00 | 0.00 | 56 | 1026.9 |
| 20260504033019 | 66 | 104 | 5.2 | 9.6 | 0.00 | 0.00 | 0.00 | 59 | 1027.0 |
| 20260504031529 | 66 | 86 | 6.1 | 10.4 | 0.00 | 0.00 | 0.00 | 60 | 1027.1 |
| 20260504030028 | 66 | 120 | 5.2 | 9.6 | 0.00 | 0.00 | 0.00 | 60 | 1027.3 |
| 20260504024523 | 66 | 53 | 6.1 | 10.4 | 0.00 | 0.00 | 0.00 | 62 | 1027.4 |
| 20260504023007 | 64 | 118 | 7.0 | 11.3 | 0.00 | 0.00 | 0.00 | 65 | 1027.6 |
| 20260504021517 | 64 | 88 | 5.2 | 9.6 | 0.00 | 0.00 | 0.00 | 66 | 1027.4 |
| 20260504020027 | 63 | 104 | 4.3 | 10.4 | 0.00 | 0.00 | 0.00 | 68 | 1027.6 |
| 20260504014513 | 62 | 113 | 6.1 | 9.6 | 0.00 | 0.00 | 0.00 | 68 | 1027.5 |
| 20260504013030 | 61 | 121 | 8.7 | 10.4 | 0.00 | 0.00 | 0.00 | 69 | 1027.5 |
| 20260504011506 | 61 | 77 | 4.3 | 11.3 | 0.00 | 0.00 | 0.00 | 71 | 1027.5 |
| 20260504010015 | 60 | 89 | 5.2 | 9.6 | 0.00 | 0.00 | 0.00 | 72 | 1027.4 |
| 20260504004524 | 59 | 102 | 6.1 | 11.3 | 0.00 | 0.00 | 0.00 | 74 | 1027.4 |